Location: Neuvy Saint Sepulchre
(46.5953°N, 1.8122°E)
Time: 09:11:16
(UTC+01:00)

Envisat - Pass Details

Date: 25 October 2021
Orbit: 764 x 766 km, 98.2° (Epoch: 28 November)

Event Time Altitude Azimuth Distance (km) Brightness Sun altitude
Rises 05:41:09 0° 29° (NNE) 3,242 6.8 -28.5°
Reaches altitude 10° 05:44:24 10° 51° (NE) 2,309 6.3 -28.0°
Maximum altitude 05:47:28 16° 89° (E) 1,924 5.9 -27.5°
Drops below altitude 10° 05:50:31 10° 126° (SE) 2,298 6.0 -27.0°
Sets 05:53:44 0° 148° (SSE) 3,217 6.5 -26.4°
